Regional Weather Roundup
Issued by NWS

Home | Current Version | Previous Version | Text Only | Print | Product List | Glossary On
Versions: 1 2 3 4 5 6 7 8 9 10 11 12 13 14 15 16 17 18 19 20 21 22 23 24 25 26 27
000
ASCA42 TJSJ 251810
RWRPR
PUERTO RICO/U.S. VIRGIN ISLANDS HOURLY WEATHER ROUNDUP
NATIONAL WEATHER SERVICE SAN JUAN PR
200 PM AST FRI MAY 25 2018

PRZ001>002-007>008-010-251900-
PUERTO RICO

CITY           SKY/WX    TMP DP  RH WIND       PRES   REMARKS
SAN JUAN LMM   LGT RAIN  82  75  78 NE13      30.01F
AGUADILLA      HVY RAIN  73  70  88 SE12      30.03
CEIBA          MOSUNNY   86  75  70 E12G20    30.03  HX  95
$$

VIZ001>002-251900-
U.S. VIRGIN ISLANDS

CITY           SKY/WX    TMP DP  RH WIND       PRES   REMARKS
CHARLOTTE AMA  SUNNY    N/A N/A N/A SE16      30.01
$$

HOURLY WEATHER ROUNDUP FOR THE NEWS MEDIA

CITY           SKY/WX    TMP DP  RH WIND       PRES   REMARKS
ORLANDO        PTSUNNY   86  69  56 E13       30.00F HX  90
NEW YORK       PTSUNNY   77  62  59 S14       29.94F
NEWARK         PTSUNNY   87  51  28 SW15G23   29.92F
CHICAGO        PTSUNNY   87  57  35 SW10      29.88F
HARTFORD       FAIR      80  57  45 SW16G23   29.86F
BOSTON         PTSUNNY   86  46  24 W15G28    29.80F
DALLAS         PTSUNNY   92  71  50 VRB7      29.95S HX  98
PHILADELPHIA   PTSUNNY   84  57  39 SW16      29.97F
LOS ANGELES    PTSUNNY   66  49  54 SW14      30.14R
WASHINGTON DC  FAIR      84  59  42 S13       29.99F



USA.gov is the U.S. government's official web portal to all federal, state and local government web resources and services.